Wind_Speed
54 54 53 53 53 52 53 54 56 55 53 51 51 50 51 51 51 50 51 51 51 51 51 51 50 49 49 49 48 47 47 48 48 48 48 47 47 46
53 53 53 53 52 52 52 53 53 53 52 49 50 50 51 51 51 51 52 52 51 51 51 50 51 50 49 49 48 47 47 47 48 48 48 48 47 47
52 53 53 53 53 52 51 50 50 51 52 50 50 50 50 51 51 51 51 51 51 51 51 51 51 50 48 48 48 47 46 46 47 48 48 48 48 47
52 53 52 52 52 52 50 50 50 51 52 52 51 50 50 50 51 51 51 51 51 51 51 50 50 49 48 48 48 47 46 46 46 46 47 48 48 48
52 52 52 52 52 52 51 50 50 50 51 52 50 50 50 51 52 52 52 51 51 50 49 49 49 48 48 49 48 47 47 47 45 44 46 47 47 47
51 52 52 52 52 51 51 50 49 49 50 51 50 49 49 50 50 50 49 48 49 49 49 48 48 47 47 47 46 46 46 45 44 44 45 46 47 47
51 51 52 51 51 51 51 51 50 49 49 50 50 49 49 49 49 48 47 46 45 46 47 46 45 45 46 46 46 44 44 44 43 43 45 46 47 46
50 50 51 51 51 50 51 51 50 49 49 48 48 47 48 48 47 46 46 45 45 44 44 44 44 44 44 44 44 43 42 42 43 43 44 45 46 46
49 49 49 49 49 49 49 50 50 49 49 48 47 46 46 46 45 45 45 45 44 42 42 42 43 43 42 42 41 41 41 41 42 43 44 44 44 44
48 48 47 46 46 47 48 49 48 47 47 47 46 44 43 43 43 44 44 43 42 41 41 41 41 41 41 40 40 40 41 41 41 42 43 43 43 42
46 46 45 44 44 44 44 44 43 43 44 44 43 43 42 41 41 41 41 41 39 38 39 39 39 40 39 39 39 40 40 39 40 41 42 42 42 42
44 43 43 42 41 41 40 40 40 40 40 41 41 41 40 39 39 39 39 39 38 36 36 37 37 38 39 39 38 38 38 38 39 40 40 40 40 41
42 41 40 39 38 38 39 38 38 38 38 39 38 37 37 37 36 35 34 35 35 34 34 35 35 36 37 37 37 37 37 38 38 38 38 38 39 39
40 39 37 37 36 37 37 36 37 37 36 36 36 35 34 33 34 34 33 33 33 33 33 33 34 34 35 35 36 37 37 38 37 37 37 38 38 38
38 37 36 35 35 35 35 35 35 35 35 35 33 32 32 32 32 32 31 32 33 33 33 32 32 33 34 35 35 35 36 36 36 36 37 37 37 37
35 34 33 33 33 33 33 32 32 32 32 31 31 30 31 31 31 31 30 31 32 31 31 32 32 32 33 34 35 35 35 35 35 36 36 36 36 36
31 31 31 32 32 32 31 31 30 30 30 29 29 30 29 29 29 29 29 29 30 30 30 30 31 32 32 33 33 33 33 32 33 33 34 34 34 35
28 28 29 29 28 28 29 29 29 29 28 28 28 27 27 27 27 28 28 28 28 29 29 29 30 30 30 30 30 30 30 31 32 32 32 32 32 32
25 25 25 25 26 26 27 28 27 27 27 27 27 26 26 26 26 26 27 27 27 28 27 27 28 28 27 27 27 28 29 30 30 30 30 30 30 30
23 23 23 23 23 24 25 25 25 26 26 26 26 26 26 25 26 26 26 26 26 27 27 26 26 25 25 25 25 26 26 27 28 28 28 28 28 28
22 22 21 21 21 22 22 23 23 24 24 24 24 25 25 24 24 24 24 25 25 25 25 25 23 23 23 24 24 24 25 25 26 26 26 26 27 26
20 20 20 20 20 21 21 22 22 21 21 21 21 21 22 22 22 22 23 24 23 23 22 22 22 22 22 22 22 23 23 23 23 23 24 25 25 25
18 18 18 18 18 18 18 18 18 18 19 19 19 19 20 20 21 21 22 22 22 21 20 20 21 21 21 22 22 22 23 22 22 21 22 23 23 23
Wind_Direction
272 271 271 271 272 273 274 274 274 274 273 273 272 270 270 270 269 269 270 270 270 270 270 270 271 271 271 271 272 273 272 271 269 270 269 268 269 271
272 272 272 272 272 272 273 274 274 274 273 273 271 270 269 268 268 269 270 271 270 270 269 269 269 269 270 271 270 272 272 272 271 270 269 268 269 270
272 272 272 272 271 271 273 273 273 273 272 273 271 269 269 268 268 269 270 271 271 270 269 268 268 268 269 269 270 271 272 272 272 272 270 269 268 269
273 273 272 272 270 270 271 273 272 271 272 272 271 271 270 269 268 269 271 271 272 271 268 267 267 268 268 269 270 270 271 271 272 272 271 270 270 269
275 274 273 272 271 269 270 271 271 271 271 272 272 273 271 270 269 269 271 272 272 271 269 268 268 268 268 269 270 269 270 271 272 272 271 271 271 271
276 276 275 273 271 269 269 270 270 271 272 273 273 273 272 270 270 270 271 271 271 270 269 269 268 269 269 270 269 269 270 271 271 271 272 272 272 272
277 277 276 274 272 269 268 268 270 270 271 272 272 272 271 270 269 271 270 269 270 270 269 269 270 270 270 270 269 268 270 270 270 271 272 272 272 272
278 277 276 274 271 269 269 269 270 271 271 272 272 272 270 269 268 269 269 269 269 268 268 268 269 270 270 269 269 269 269 270 270 270 272 272 272 273
278 277 276 274 271 270 269 270 271 271 272 272 273 271 269 268 267 267 268 269 269 266 267 268 269 270 270 269 268 269 270 272 272 271 272 272 272 272
278 277 276 274 272 270 270 270 270 270 271 271 271 270 269 268 267 267 268 267 267 268 269 268 269 270 270 269 269 270 271 272 272 272 271 271 272 273
278 276 275 274 272 271 271 271 270 269 269 269 268 267 267 268 268 267 268 267 267 268 269 269 270 269 269 268 268 269 271 272 271 272 272 272 272 273
277 276 275 273 272 271 271 271 270 269 268 268 267 268 268 269 268 267 267 267 266 268 270 271 270 269 269 269 268 269 271 272 273 274 273 273 273 274
277 276 275 273 271 269 269 269 269 268 268 267 267 267 268 269 269 268 268 267 267 269 270 270 270 270 270 270 269 269 270 272 273 272 272 273 274 275
276 274 273 271 269 267 267 268 268 268 268 267 267 267 267 268 268 267 265 266 267 268 270 271 271 271 270 271 271 270 271 273 273 271 272 274 273 274
274 272 271 269 267 267 267 267 267 267 268 268 267 267 266 266 266 264 264 264 265 268 271 270 270 270 271 272 273 271 271 273 272 271 271 273 274 275
274 271 270 269 268 268 266 265 266 266 266 266 265 265 265 265 265 265 264 264 266 268 270 269 269 271 273 273 272 272 272 271 270 270 273 275 275 276
273 270 268 268 268 266 264 264 265 265 265 265 265 265 265 264 265 264 263 264 267 269 270 269 270 272 274 274 273 271 271 271 270 272 274 275 275 276
275 271 269 268 267 265 263 263 263 263 262 263 263 262 262 262 264 265 265 265 268 269 270 271 272 273 274 274 273 272 273 272 272 273 274 274 274 276
276 273 271 269 266 263 262 261 260 261 261 262 263 263 262 263 266 266 266 267 267 269 272 274 275 276 275 274 274 273 274 274 274 275 276 276 276 276
274 273 273 271 267 265 264 262 260 261 260 261 262 261 261 263 266 267 268 269 270 272 274 277 277 275 274 274 274 274 275 276 277 278 278 278 278 277
274 274 273 270 267 265 264 263 262 260 260 261 261 262 262 263 266 267 268 269 271 274 276 276 274 272 271 273 275 276 278 279 279 279 278 278 279 278
276 274 273 271 270 269 267 265 263 261 260 260 261 263 263 264 267 269 270 270 270 271 273 273 274 274 274 275 276 278 279 281 281 280 280 280 279 279
274 272 271 269 269 270 268 266 263 261 260 260 261 263 264 266 268 270 271 271 269 268 270 272 275 276 277 277 276 279 280 281 282 282 283 282 280 281
Height
5623 5624 5624 5624 5624 5624 5623 5622 5622 5623 5626 5627 5626 5625 5625 5625 5625 5626 5626 5626 5626 5626 5627 5628 5628 5628 5629 5629 5629 5629 5629 5630 5630 5631 5631 5633 5634 5635
5608 5609 5609 5610 5609 5609 5609 5608 5607 5607 5609 5612 5611 5611 5610 5611 5611 5611 5611 5611 5612 5612 5612 5613 5614 5615 5615 5615 5616 5616 5616 5616 5616 5617 5617 5619 5620 5621
5594 5594 5594 5594 5595 5595 5594 5594 5593 5592 5593 5596 5597 5597 5596 5596 5596 5596 5596 5597 5597 5597 5598 5598 5599 5600 5601 5601 5602 5602 5602 5602 5602 5603 5603 5605 5606 5607
5580 5579 5579 5579 5580 5580 5580 5580 5579 5578 5578 5580 5582 5582 5582 5582 5582 5582 5582 5582 5583 5583 5583 5584 5585 5585 5586 5587 5587 5588 5588 5589 5589 5589 5590 5591 5591 5592
5565 5565 5565 5564 5565 5565 5565 5565 5565 5564 5564 5564 5567 5567 5567 5567 5567 5567 5568 5568 5568 5568 5569 5570 5570 5571 5572 5573 5573 5574 5575 5575 5575 5576 5576 5577 5577 5578
5551 5550 5549 5549 5550 5550 5550 5551 5550 5550 5550 5549 5551 5552 5553 5553 5552 5553 5553 5554 5554 5554 5555 5556 5557 5558 5559 5559 5560 5561 5561 5561 5561 5562 5562 5563 5563 5564
5536 5535 5534 5534 5534 5534 5535 5535 5536 5536 5536 5536 5537 5537 5538 5539 5539 5539 5539 5540 5540 5541 5542 5543 5543 5544 5545 5546 5546 5547 5548 5548 5548 5549 5549 5549 5550 5550
5522 5521 5520 5519 5519 5519 5519 5520 5520 5521 5521 5522 5522 5523 5524 5525 5525 5525 5525 5526 5528 5530 5528 5529 5530 5531 5532 5532 5533 5534 5534 5535 5535 5536 5536 5536 5536 5536
5507 5506 5505 5505 5504 5505 5505 5506 5506 5506 5506 5507 5508 5509 5510 5511 5511 5512 5512 5512 5514 5515 5514 5516 5517 5518 5519 5519 5520 5521 5521 5521 5522 5523 5523 5523 5523 5523
5492 5491 5491 5491 5490 5491 5491 5492 5493 5493 5493 5493 5494 5495 5496 5497 5497 5498 5499 5499 5501 5502 5502 5503 5505 5505 5506 5507 5508 5508 5508 5509 5509 5509 5510 5510 5510 5510
5478 5477 5477 5477 5477 5477 5478 5479 5480 5480 5480 5480 5481 5482 5483 5484 5484 5485 5486 5487 5488 5490 5491 5491 5492 5492 5493 5494 5495 5496 5497 5497 5497 5497 5497 5497 5497 5496
5465 5464 5463 5463 5463 5464 5465 5466 5467 5468 5468 5468 5469 5470 5471 5472 5473 5473 5474 5475 5476 5478 5480 5480 5480 5480 5481 5482 5483 5484 5485 5485 5485 5485 5485 5484 5484 5483
5452 5451 5451 5450 5451 5452 5453 5454 5455 5455 5456 5457 5458 5459 5460 5461 5462 5462 5463 5464 5465 5467 5469 5468 5468 5468 5468 5470 5471 5472 5473 5473 5473 5473 5473 5472 5472 5471
5439 5439 5439 5439 5440 5440 5441 5442 5443 5444 5445 5446 5447 5449 5450 5451 5451 5452 5453 5454 5455 5457 5458 5458 5458 5458 5458 5458 5459 5460 5461 5461 5461 5461 5461 5460 5460 5459
5427 5427 5427 5428 5428 5429 5430 5431 5432 5433 5434 5436 5437 5439 5440 5440 5441 5442 5443 5444 5446 5447 5447 5447 5448 5448 5448 5448 5448 5449 5449 5450 5449 5449 5450 5449 5448 5448
5416 5416 5416 5417 5417 5418 5419 5420 5421 5423 5424 5426 5427 5428 5429 5430 5431 5432 5434 5435 5436 5437 5437 5437 5438 5438 5438 5438 5438 5437 5437 5438 5438 5438 5438 5438 5437 5437
5405 5406 5406 5407 5408 5408 5409 5410 5412 5413 5415 5416 5417 5419 5420 5421 5422 5423 5424 5425 5426 5428 5428 5428 5428 5428 5428 5427 5427 5427 5427 5427 5427 5427 5427 5427 5426 5425
5396 5397 5397 5398 5398 5399 5400 5401 5403 5404 5406 5407 5409 5410 5411 5413 5414 5415 5415 5417 5418 5418 5419 5419 5419 5418 5418 5417 5417 5417 5416 5416 5417 5416 5416 5416 5415 5415
5389 5389 5389 5389 5390 5391 5392 5393 5395 5396 5398 5399 5401 5402 5403 5405 5406 5406 5407 5408 5409 5409 5410 5410 5409 5409 5409 5409 5408 5408 5407 5407 5406 5406 5405 5405 5405 5404
5382 5382 5382 5382 5382 5383 5384 5385 5387 5388 5390 5391 5393 5394 5395 5397 5398 5398 5399 5400 5401 5401 5401 5401 5400 5400 5400 5401 5400 5399 5399 5398 5398 5397 5396 5395 5395 5394
5376 5375 5375 5375 5375 5376 5377 5378 5380 5381 5382 5384 5385 5386 5388 5389 5390 5391 5392 5392 5393 5393 5393 5393 5392 5392 5392 5393 5392 5391 5391 5390 5389 5388 5387 5387 5386 5385
5369 5369 5369 5369 5369 5370 5371 5372 5373 5374 5376 5377 5378 5379 5380 5382 5383 5384 5384 5385 5385 5385 5385 5385 5385 5385 5385 5385 5385 5384 5383 5382 5381 5380 5379 5379 5377 5377
5363 5363 5363 5364 5364 5365 5366 5366 5367 5368 5369 5371 5372 5373 5374 5375 5376 5376 5377 5377 5378 5378 5378 5379 5379 5378 5378 5378 5377 5376 5376 5375 5374 5373 5372 5371 5370 5369